Location: Buckenweiler
(49.0667°N, 10.2500°E)
Time: 04:21:42
(UTC+00:00)

Cosmos 1500 Rocket - Visible Passes

Search period start: 21 April 2026 00:00
Search period end: 01 May 2026 00:00
Orbit: 596 x 623 km, 82.5° (Epoch: 20 April)

Date Brightness Start Highest point End Pass type
(mag) Time Alt. Az. Time Alt. Az. Time Alt. Az.
21 Apr 6.9 01:56:37 10° NE 01:58:08 11° ENE 01:59:38 10° E visible
21 Apr 3.6 03:32:06 10° N 03:36:31 87° ENE 03:40:56 10° S visible
22 Apr 6.5 02:09:47 10° NNE 02:12:47 18° ENE 02:15:48 10° ESE visible
23 Apr 5.8 02:23:36 10° NNE 02:27:23 27° ENE 02:31:09 10° SE visible
24 Apr 4.9 02:37:40 10° N 02:41:53 42° ENE 02:46:06 10° SSE visible
25 Apr 3.9 02:51:54 10° N 02:56:19 70° E 03:00:43 10° SSE visible
26 Apr 6.5 01:29:56 10° NNE 01:32:28 15° ENE 01:35:00 10° E visible
26 Apr 3.5 03:06:15 10° NNW 03:10:40 71° W 03:15:04 10° S visible
27 Apr 6.0 01:43:34 10° NNE 01:47:05 23° ENE 01:50:35 10° ESE visible
27 Apr 4.0 03:20:46 10° NNW 03:24:57 43° W 03:29:08 10° SSW visible
28 Apr 5.2 01:57:33 10° N 02:01:37 35° ENE 02:05:41 10° SE visible
29 Apr 4.2 02:11:43 10° N 02:16:05 56° ENE 02:20:26 10° SSE visible
30 Apr 6.5 00:50:15 10° NE 00:52:07 12° ENE 00:53:58 10° E visible
30 Apr 3.5 02:26:01 10° N 02:30:28 88° W 02:34:54 10° S visible
